Tehachapi, CA

8:55 AM PDT on April 19, 2018 (GMT -0700)
Tehachapi Municipal

Weather History for KTSP - December, 2013

Change the Weather History Date:

Tuesday, December 31, 2013

  Actual Average Record
Temperature  
Mean Temperature 44 °F -  
Max Temperature 60 °F 48 °F 64 °F (2011)
Min Temperature 28 °F 28 °F 15 °F (2014)
Degree Days  
Heating Degree Days 21    
Moisture  
Dew Point 10 °F    
Average Humidity 27    
Maximum Humidity 47    
Minimum Humidity 12    
Precipitation  
Precipitation 0.00 in - - ()
Sea Level Pressure  
Sea Level Pressure 30.23 in    
Wind  
Wind Speed 5 mph (NW)    
Max Wind Speed 18 mph    
Max Gust Speed 22 mph    
Visibility 9 miles    
Events      
Averages and records for this station are not official NWS values.
T = Trace of Precipitation, MM = Missing Value Source: NWS Daily Summary

Daily Weather History Graph

Daily Weather History Graph

Search for Another Location

Airport or City:

Astronomy

Dec. 31, 2013 Rise Set
Actual Time 7:01 AM PST 4:52 PM PST
Civil Twilight 6:33 AM PST 5:20 PM PST
Nautical Twilight 6:02 AM PST 5:51 PM PST
Astronomical Twilight 5:31 AM PST 6:22 PM PST
Moon 6:01 AM PST (12/31) 4:31 PM PST (12/31)
Length of Visible Light 10h 46m
Length of Day
9h 50m
Waning Crescent, 1% of the Moon is Illuminated
Dec 31
Waning Crescent
Jan 1
New
Jan 7
First Quarter
Jan 15
Full
Jan 23
Last Quarter

Hourly Weather History & Observations

Time (PST) Temp. Windchill Dew Point Humidity Pressure Visibility Wind Dir Wind Speed Gust Speed Precip Events Conditions
12:15 AM 42.8 °F - 6.8 °F 23% 30.28 in 10.0 mi Calm Calm - N/A   Clear
12:35 AM 44.6 °F 43.1 °F 8.6 °F 23% 30.28 in 10.0 mi WSW 3.5 mph - N/A   Clear
12:55 AM 44.6 °F - 6.8 °F 21% 30.27 in 10.0 mi Calm Calm - N/A   Clear
1:15 AM 42.8 °F 38.6 °F 8.6 °F 25% 30.27 in 10.0 mi NNW 6.9 mph - N/A   Clear
1:35 AM 41.0 °F - 8.6 °F 26% 30.27 in 10.0 mi Calm Calm - N/A   Clear
1:55 AM 41.0 °F 38.0 °F 8.6 °F 26% 30.26 in 10.0 mi NNW 4.6 mph - N/A   Clear
2:15 AM 41.0 °F - 8.6 °F 26% 30.26 in 10.0 mi Calm Calm - N/A   Clear
2:35 AM 41.0 °F - 6.8 °F 24% 30.25 in 10.0 mi Calm Calm - N/A   Clear
2:55 AM 32.0 °F 26.4 °F 10.4 °F 41% 30.25 in 9.0 mi ESE 5.8 mph - N/A   Clear
3:15 AM 32.0 °F - 10.4 °F 41% 30.25 in 7.0 mi Calm Calm - N/A   Clear
3:35 AM 32.0 °F 27.5 °F 8.6 °F 38% 30.24 in 10.0 mi SE 4.6 mph - N/A   Clear
3:55 AM 32.0 °F 25.6 °F 8.6 °F 38% 30.24 in 7.0 mi SE 6.9 mph - N/A   Clear
4:15 AM 32.0 °F 28.7 °F 8.6 °F 38% 30.24 in 10.0 mi ESE 3.5 mph - N/A   Clear
4:35 AM 32.0 °F 28.7 °F 10.4 °F 41% 30.24 in 10.0 mi East 3.5 mph - N/A   Clear
4:55 AM 32.0 °F - 10.4 °F 41% 30.24 in 10.0 mi Calm Calm - N/A   Clear
5:15 AM 28.4 °F 24.6 °F 10.4 °F 47% 30.24 in 10.0 mi SE 3.5 mph - N/A   Clear
5:35 AM 28.4 °F - 10.4 °F 47% 30.25 in 8.0 mi Calm Calm - N/A   Clear
5:55 AM 30.2 °F - 10.4 °F 44% 30.25 in 10.0 mi Calm Calm - N/A   Clear
6:15 AM 28.4 °F 20.4 °F 10.4 °F 47% 30.25 in 8.0 mi SE 8.1 mph - N/A   Clear
6:35 AM 32.0 °F - 8.6 °F 38% 30.25 in 4.0 mi Calm Calm - N/A   Haze
6:55 AM 32.0 °F 26.4 °F 10.4 °F 41% 30.25 in 10.0 mi SE 5.8 mph - N/A   Clear
7:15 AM 32.0 °F 28.7 °F 10.4 °F 41% 30.26 in 10.0 mi ENE 3.5 mph - N/A   Clear
7:35 AM 32.0 °F - 12.2 °F 44% 30.26 in 9.0 mi Calm Calm - N/A   Clear
7:55 AM 33.8 °F - 12.2 °F 41% 30.26 in 9.0 mi Calm Calm - N/A   Clear
8:15 AM 37.4 °F - 12.2 °F 36% 30.27 in 9.0 mi Calm Calm - N/A   Clear
8:35 AM 42.8 °F - 10.4 °F 27% 30.27 in 10.0 mi Calm Calm - N/A   Clear
8:55 AM 46.4 °F - 10.4 °F 23% 30.27 in 10.0 mi Calm Calm - N/A   Clear
9:15 AM 53.6 °F - 12.2 °F 19% 30.27 in 8.0 mi WNW 6.9 mph - N/A   Clear
9:35 AM 55.4 °F - 8.6 °F 15% 30.27 in 10.0 mi NW 10.4 mph - N/A   Clear
9:55 AM 59.0 °F - 6.8 °F 13% 30.26 in 8.0 mi NW 9.2 mph - N/A   Clear
10:15 AM 59.0 °F - 6.8 °F 13% 30.26 in 9.0 mi NW 10.4 mph - N/A   Clear
10:35 AM 60.8 °F - 6.8 °F 12% 30.25 in 10.0 mi NNW 13.8 mph - N/A   Clear
10:55 AM 60.8 °F - 8.6 °F 13% 30.25 in 10.0 mi NW 15.0 mph - N/A   Clear
11:15 AM 60.8 °F - 8.6 °F 13% 30.24 in 8.0 mi NW 15.0 mph 18.4 mph N/A   Clear
11:35 AM 59.0 °F - 8.6 °F 14% 30.23 in 10.0 mi NW 12.7 mph - N/A   Clear
11:55 AM 60.8 °F - 8.6 °F 13% 30.22 in 9.0 mi NW 15.0 mph 19.6 mph N/A   Clear
12:15 PM 60.8 °F - 8.6 °F 13% 30.21 in 8.0 mi NW 15.0 mph 20.7 mph N/A   Clear
12:35 PM 60.8 °F - 8.6 °F 13% 30.21 in 9.0 mi NW 17.3 mph 21.9 mph N/A   Clear
12:55 PM 59.0 °F - 8.6 °F 14% 30.20 in 7.0 mi NW 18.4 mph - N/A   Clear
1:15 PM 59.0 °F - 10.4 °F 15% 30.19 in 8.0 mi NW 17.3 mph - N/A   Clear
1:35 PM 59.0 °F - 10.4 °F 15% 30.19 in 9.0 mi NW 17.3 mph - N/A   Clear
1:55 PM 57.2 °F - 10.4 °F 16% 30.18 in 8.0 mi NW 17.3 mph - N/A   Clear
2:15 PM 57.2 °F - 10.4 °F 16% 30.18 in 9.0 mi NW 16.1 mph - N/A   Clear
2:35 PM 57.2 °F - 10.4 °F 16% 30.18 in 9.0 mi NW 13.8 mph - N/A   Clear
2:55 PM 57.2 °F - 10.4 °F 16% 30.18 in 9.0 mi NW 15.0 mph - N/A   Clear
3:15 PM 55.4 °F - 10.4 °F 17% 30.18 in 9.0 mi NW 15.0 mph - N/A   Clear
3:35 PM 55.4 °F - 10.4 °F 17% 30.18 in 9.0 mi NW 15.0 mph - N/A   Clear
3:55 PM 55.4 °F - 10.4 °F 17% 30.18 in 9.0 mi NW 13.8 mph - N/A   Clear
4:15 PM 53.6 °F - 10.4 °F 18% 30.18 in 8.0 mi NW 12.7 mph 17.3 mph N/A   Clear
4:35 PM 50.0 °F - 10.4 °F 20% 30.18 in 8.0 mi NW 10.4 mph - N/A   Clear
4:55 PM 48.2 °F - 10.4 °F 22% 30.18 in 8.0 mi West 3.5 mph - N/A   Clear
5:15 PM 48.2 °F - 14.0 °F 25% 30.19 in 8.0 mi Calm Calm - N/A   Clear
5:35 PM 44.6 °F 41.4 °F 14.0 °F 29% 30.19 in 9.0 mi WSW 5.8 mph - N/A   Clear
5:55 PM 46.4 °F 45.2 °F 14.0 °F 27% 30.19 in 8.0 mi WNW 3.5 mph - N/A   Clear
6:15 PM 46.4 °F 44.3 °F 12.2 °F 25% 30.19 in 9.0 mi North 4.6 mph - N/A   Clear
6:35 PM 46.4 °F 44.3 °F 10.4 °F 23% 30.19 in 10.0 mi NW 4.6 mph - N/A   Clear
6:55 PM 44.6 °F 42.2 °F 10.4 °F 25% 30.19 in 10.0 mi WSW 4.6 mph - N/A   Clear
7:15 PM 44.6 °F 42.2 °F 10.4 °F 25% 30.19 in 10.0 mi West 4.6 mph - N/A   Clear
7:35 PM 46.4 °F 45.2 °F 10.4 °F 23% 30.19 in 10.0 mi NW 3.5 mph - N/A   Clear
7:55 PM 44.6 °F 43.1 °F 10.4 °F 25% 30.19 in 10.0 mi NNW 3.5 mph - N/A   Clear
8:15 PM 37.4 °F 31.4 °F 10.4 °F 33% 30.20 in 10.0 mi SE 8.1 mph - N/A   Clear
8:35 PM 37.4 °F 32.8 °F 10.4 °F 33% 30.21 in 10.0 mi SE 5.8 mph - N/A   Clear
8:55 PM 37.4 °F 32.8 °F 10.4 °F 33% 30.21 in 10.0 mi NE 5.8 mph - N/A   Clear
9:15 PM 33.8 °F 30.8 °F 10.4 °F 38% 30.21 in 10.0 mi ESE 3.5 mph - N/A   Clear
9:35 PM 35.6 °F 29.9 °F 10.4 °F 35% 30.22 in 10.0 mi SE 6.9 mph - N/A   Clear
9:55 PM 35.6 °F - 8.6 °F 33% 30.23 in 10.0 mi Calm Calm - N/A   Clear
10:15 PM 33.8 °F - 8.6 °F 35% 30.23 in 10.0 mi Calm Calm - N/A   Clear
10:35 PM 32.0 °F - 10.4 °F 41% 30.23 in 10.0 mi Calm Calm - N/A   Clear
10:55 PM 33.8 °F 28.6 °F 8.6 °F 35% 30.23 in 10.0 mi SE 5.8 mph - N/A   Clear
11:15 PM 32.0 °F - 8.6 °F 38% 30.22 in 10.0 mi Calm Calm - N/A   Clear
11:35 PM 32.0 °F 28.7 °F 8.6 °F 38% 30.22 in 10.0 mi East 3.5 mph - N/A   Clear
11:55 PM 32.0 °F - 10.4 °F 41% 30.22 in 10.0 mi Calm Calm - N/A   Clear